{"data":{"norad_id":68163,"epoch":"2026-05-25T01:06:19.052640Z","epoch_age_seconds":74616,"freshness":"FRESH","line1":"1 68163U 26049X   26145.04605385  .00016648  00000+0  51689-3 0  9990","line2":"2 68163  97.2861 166.6239 0000217 205.5932 154.5300 15.33442814 11340","mean_motion":15.33442814,"eccentricity":2.17e-5,"inclination_deg":97.2861,"raan_deg":166.6239,"arg_perigee_deg":205.5932,"mean_anomaly_deg":154.53,"bstar":0.00051689,"rev_number":1134,"period_min":93.906338524861,"perigee_km":465.40117048295,"apogee_km":465.6981864848,"semimajor_km":6843.6866784839,"source":"CELESTRAK","updated_at":"2026-05-25T13:38:21.850963Z"}}